Flag for Germany Weather past 2 weeks in Waren (Müritz), Mecklenburg-Western Pomerania, Germany

Now
41 °F

Sprinkles. Mostly cloudy.


Feels Like: 29 °F
Forecast: 35 / 42 °F
Wind: 37 mph from West

Location: Laage

Current Time: Mar 31, 2015 at 7:46:05 PM

Latest Report: Mar 31, 2015 at 6:20 PM


Visibility: N/A

Pressure: 29.00 "Hg

Humidity: 87%

Dew point: 37 °F

Location of Waren (Müritz)Location

Historic Weather in Waren (Müritz) — Graph

°F

Waren (Müritz) temperature yesterday

Maximum temperature yesterday: 48 °F (at 12:20 AM)
Minimum temperature yesterday: 39 °F (at 2:20 AM)
Average temperature yesterday: 42 °F

Past Weeks' High & Low Weather Summary

 TemperatureHumidityPressure
High59 °F (Mar 17, 3:20 PM)100% (Mar 21, 6:20 AM)30.48 "Hg (Mar 21, 6:20 AM)
Low27 °F (Mar 20, 5:20 AM)23% (Mar 18, 3:20 PM)28.85 "Hg (Mar 30, 1:20 AM)
Average42 °F76%29.91 "Hg
* Reported Mar 16 5:20 PM — Mar 31 6:20 PM, Waren (Müritz), Weather by CustomWeather, © 2015

Note: Actual official high and low records may vary slightly from our data, if they occured in-between our weather recording intervals... More about our weather records

Advertising

Waren (Müritz) weather history for previous 24 hours

 ConditionsComfort  
Time TempWeatherWind HumidityBarometerVisibility
6:20 PM
Tue, Mar 31
41 °FSprinkles. Mostly cloudy.37 mph87%29.00 "HgN/A
5:56 PM41 °FRain showers. Fog.28 mph93%29.00 "Hg3 mi
5:20 PM43 °FPartly sunny.29 mph87%29.00 "HgN/A
4:20 PM45 °FSprinkles. Mostly cloudy.24 mph87%28.97 "HgN/A
3:20 PM45 °FPartly sunny.26 mph87%28.94 "HgN/A
2:20 PM46 °FLight rain. Partly sunny.25 mph82%28.94 "Hg6 mi
1:20 PM48 °FPartly sunny.25 mph82%28.91 "HgN/A
12:50 PM46 °FPartly sunny.25 mph87%28.91 "HgN/A
12:20 PM45 °FPartly sunny.20 mph93%28.91 "HgN/A
11:20 AM37 °FPartly sunny.10 mph100%28.91 "HgN/A
10:20 AM34 °FLight snow. Partly sunny.9 mph100%28.94 "Hg4 mi
9:20 AM32 °FSnow. Partly sunny.9 mph100%28.97 "Hg1 mi
8:55 AM32 °FSnow. More clouds than sun.12 mph100%29.00 "Hg1 mi
8:20 AM32 °FRain. More clouds than sun.14 mph100%29.03 "Hg1 mi
7:20 AM34 °FRain. Low clouds.13 mph93%29.12 "Hg1 mi
6:20 AM36 °FLight rain. Partly cloudy.10 mph93%29.21 "Hg4 mi
5:20 AM39 °FPartly cloudy.10 mph70%29.30 "HgN/A
4:20 AM39 °FPassing clouds.9 mph75%29.36 "HgN/A
3:20 AM37 °FOvercast.10 mph81%29.42 "HgN/A
2:20 AM37 °FOvercast.13 mph87%29.47 "HgN/A
1:20 AM37 °FPassing clouds.9 mph81%29.50 "HgN/A
12:20 AM37 °FPassing clouds.12 mph81%29.53 "HgN/A
11:20 PM
Mon, Mar 30
39 °FPassing clouds.16 mph75%29.53 "HgN/A
10:20 PM39 °FPassing clouds.20 mph81%29.53 "HgN/A
9:20 PM41 °FPassing clouds.24 mph76%29.50 "HgN/A
8:20 PM41 °FPartly sunny.28 mph76%29.47 "HgN/A
7:20 PM43 °FScattered showers. Partly sunny.25 mph76%29.45 "HgN/A
Weather by CustomWeather, © 2015

See weather overviewHow to use our weather pages